Weather History for Gibraltar, Gibraltar

Change the Weather History Date:

Thursday, November 1, 2012

  Actual Average Record
Temperature  
Mean Temperature 66 °F -  
Max Temperature 71 °F 63 °F 82 °F (2006)
Min Temperature 60 °F 55 °F 55 °F (2000)
Growing Degree Days 16 (Base 50)    
Moisture  
Dew Point 58 °F    
Average Humidity 77    
Maximum Humidity 94    
Minimum Humidity 60    
Precipitation  
Precipitation 0.02 in - - ()
Sea Level Pressure  
Sea Level Pressure 29.76 in    
Wind  
Wind Speed 6 mph ()    
Max Wind Speed 17 mph    
Max Gust Speed -    
Visibility 6.9 miles    
Events Rain    
Averages and records for this station are not official NWS values.
T = Trace of Precipitation, MM = Missing Value Source: Averaged Metar Reports

Daily Weather History Graph

Daily Weather History Graph

Search for Another Location

Airport:

Trip Planner

Search our weather history database for the weather conditions in past years. The results will help you decide how hot, cold, wet, or windy it might be!

Date:

Astronomy

Nov. 01, 2012 Rise Set
Actual Time 7:44 AM CET 6:25 PM CET
Civil Twilight 7:17 AM CET 6:51 PM CET
Nautical Twilight 6:47 AM CET 7:21 PM CET
Astronomical Twilight 6:17 AM CET 7:51 PM CET
Moon 8:14 PM CET (11/1) 10:01 AM CET (11/1)
Length of Visible Light 11h 33m
Length of Day
10h 40m
Waning Gibbous, 94% of the Moon is Illuminated
Nov 1
Waning Gibbous
Nov 7
Last Quarter
Nov 13
New
Nov 20
First Quarter
Nov 28
Full

Hourly Weather History & Observations

Time (CET) Temp. Dew Point Humidity Pressure Visibility Wind Dir Wind Speed Gust Speed Precip Events Conditions
12:50 AM 63 °F 54 °F 64% 29.68 in 11 mi WSW 8.1 mph - -  
12:50 AM 62.6 °F 53.6 °F 72% 29.65 in 6.2 mi WSW 8.1 mph - N/A   Unknown
1:50 AM 62.6 °F 57.2 °F 82% 29.65 in 6.2 mi West 6.9 mph - N/A   Unknown
2:50 AM 60.8 °F 57.2 °F 88% 29.65 in 6.2 mi West 3.5 mph - N/A   Unknown
3:50 AM 60.8 °F 55.4 °F 82% 29.62 in 6.2 mi NW 2.3 mph - N/A   Unknown
4:50 AM 60.8 °F 55.4 °F 82% 29.62 in 6.2 mi WSW 5.8 mph - N/A   Unknown
5:50 AM 60.8 °F 57.2 °F 88% 29.62 in 6.2 mi Calm Calm - N/A Rain Light Rain Showers
6:50 AM 61 °F 57 °F 82% 29.65 in 9 mi West 3.5 mph - - Rain Light Rain Showers
6:50 AM 60.8 °F 57.2 °F 88% 29.62 in 6.2 mi West 3.5 mph - N/A   Mostly Cloudy
7:50 AM 60.8 °F 57.2 °F 88% 29.65 in 6.2 mi Calm Calm - N/A Rain Light Rain Showers
8:50 AM 60.8 °F 59.0 °F 94% 29.68 in 5.6 mi Calm Calm - N/A   Mostly Cloudy
9:50 AM 60.8 °F 59.0 °F 94% 29.71 in 3.7 mi Calm Calm - N/A Rain Light Rain
10:50 AM 62.6 °F 59.0 °F 88% 29.74 in 6.2 mi Calm Calm - N/A   Mostly Cloudy
11:50 AM 64.4 °F 60.8 °F 88% 29.77 in 6.2 mi Calm Calm - N/A   Mostly Cloudy
12:50 PM 69 °F 61 °F 69% 29.78 in 12 mi SW 5.8 mph - -   Partly Cloudy
12:50 PM 68.0 °F 60.8 °F 78% 29.77 in 6.2 mi SW 5.8 mph - N/A   Mostly Cloudy
1:50 PM 69.8 °F 60.8 °F 73% 29.77 in 6.2 mi SW 6.9 mph - N/A   Scattered Clouds
2:50 PM 69.8 °F 57.2 °F 64% 29.77 in 6.2 mi West 15.0 mph - N/A   Partly Cloudy
3:50 PM 69.8 °F 55.4 °F 60% 29.80 in 6.2 mi West 16.1 mph - N/A   Partly Cloudy
4:50 PM 69.8 °F 55.4 °F 60% 29.83 in 6.2 mi West 16.1 mph - N/A   Scattered Clouds
5:50 PM 68.0 °F 59.0 °F 73% 29.83 in 6.2 mi West 16.1 mph - N/A   Scattered Clouds
6:50 PM 66 °F 57 °F 65% 29.88 in 16 mi WSW 17.3 mph - -   Mostly Cloudy
6:50 PM 66.2 °F 57.2 °F 73% 29.86 in 6.2 mi WSW 17.3 mph - N/A   Mostly Cloudy
7:50 PM 64.4 °F 59.0 °F 83% 29.89 in 6.2 mi West 8.1 mph - N/A   Mostly Cloudy
8:50 PM 66.2 °F 59.0 °F 78% 29.92 in 6.2 mi WSW 6.9 mph - N/A   Mostly Cloudy
9:50 PM 66.2 °F 57.2 °F 73% 29.92 in 6.2 mi WSW 6.9 mph - N/A   Mostly Cloudy
10:50 PM 66.2 °F 57.2 °F 73% 29.92 in 6.2 mi WSW 6.9 mph - N/A   Mostly Cloudy
11:50 PM 66.2 °F 55.4 °F 68% 29.95 in 6.2 mi WSW 8.1 mph - N/A   Unknown